Location: *
(45.4590°N, 16.3650°E)
Time: 15:58:34
(UTC+00:00)

COSMO-SKYMED 1 - Pass Details

Date: 17 January 2020
Orbit: 621 x 623 km, 97.9° (Epoch: 19 February)

Event Time Altitude Azimuth Distance (km) Brightness Sun altitude
Exits shadow 17:38:51 - 5° (N) 2,652 5.7 -20.5°
Reaches altitude 10° 17:40:29 10° 360° (N) 2,003 5.1 -20.8°
Maximum altitude 17:44:35 42° 290° (WNW) 894 3.8 -21.5°
Drops below altitude 10° 17:48:39 10° 219° (SW) 1,988 5.8 -22.2°
Sets 17:50:54 0° 213° (SSW) 2,889 6.6 -22.6°
